ERINB Weather Reports


Display with metric or nautical units.
time (UTC)temp
F
wind
direction
speed
MPH
gust
MPH
rain 1hr
in
rain 24hr
in
rain mn
in
humidity
%
barometer
mb
20260507003900 56 66 1.0 3.0 0.00 0.00 0.00 1020.3
20260507003447 56 66 1.0 3.0 0.00 0.00 0.00 1020.3
20260507002900 56 60 1.0 5.0 0.00 0.00 0.00 1020.4
20260507002748 56 60 1.0 5.0 0.00 0.00 0.00 1020.4
20260507002047 56 51 1.0 5.0 0.00 0.00 0.00 1020.4
20260507001858 56 0 0.0 0.0 0.00 0.00 0.00 1020.2
20260507001347 55 59 1.0 4.0 0.00 0.00 0.00 1020.2
20260507000849 55 65 0.0 4.0 0.00 0.00 0.00 1020.2
20260507000147 55 103 0.0 2.0 0.00 0.00 0.00 1020.3
20260506235857 55 0 0.0 0.0 0.00 0.00 0.00 1020.3
20260506235448 55 0 0.0 0.0 0.00 0.00 0.00 1020.3
20260506234858 56 240 0.0 1.0 0.00 0.00 0.00 1020.2
20260506234747 56 240 0.0 1.0 0.00 0.00 0.00 1020.2
20260506234048 56 0 0.0 0.0 0.00 0.00 0.00 1020.2
20260506233859 56 0 0.0 0.0 0.00 0.00 0.00 1020.3
20260506233347 56 0 0.0 0.0 0.00 0.00 0.00 1020.4
20260506232900 56 0 0.0 0.0 0.00 0.00 0.00 1020.6
20260506232650 56 0 0.0 0.0 0.00 0.00 0.00 1020.6
20260506231947 56 0 0.0 0.0 0.00 0.00 0.00 1020.5
20260506231857 56 0 0.0 0.0 0.00 0.00 0.00 1020.5
20260506231247 56 0 0.0 0.0 0.00 0.00 0.00 1020.4
20260506230858 56 0 0.0 0.0 0.00 0.00 0.00 1020.5
20260506230547 56 0 0.0 0.0 0.00 0.00 0.00 1020.5
20260506225847 56 0 0.0 0.0 0.00 0.00 0.00 1020.4
20260506225149 56 239 0.0 2.0 0.00 0.00 0.00 1020.4
20260506224900 57 0 0.0 0.0 0.00 0.00 0.00 1020.4
20260506224448 57 0 0.0 0.0 0.00 0.00 0.00 1020.4
20260506223858 57 0 0.0 0.0 0.00 0.00 0.00 1020.4
20260506223748 57 0 0.0 0.0 0.00 0.00 0.00 1020.4
20260506223047 56 0 0.0 0.0 0.00 0.00 0.00 1020.5
20260506222859 57 0 0.0 0.0 0.00 0.00 0.00 1020.5
20260506222348 56 0 0.0 0.0 0.00 0.00 0.00 1020.5
20260506221858 56 233 0.0 1.0 0.00 0.00 0.00 1020.5
20260506221647 56 233 0.0 1.0 0.00 0.00 0.00 1020.5
20260506220948 56 0 0.0 0.0 0.00 0.00 0.00 1020.3
20260506220858 56 0 0.0 0.0 0.00 0.00 0.00 1020.3
20260506220247 57 0 0.0 0.0 0.00 0.00 0.00 1020.5
20260506215858 58 0 0.0 0.0 0.00 0.00 0.00 1020.3
20260506215548 58 0 0.0 0.0 0.00 0.00 0.00 1020.3
20260506214847 57 0 0.0 0.0 0.00 0.00 0.00 1020.6
20260506214147 57 194 0.0 2.0 0.00 0.00 0.00 1020.4
20260506213859 57 242 0.0 3.0 0.00 0.00 0.00 1020.5
20260506213448 57 242 0.0 3.0 0.00 0.00 0.00 1020.5
20260506212858 58 257 0.0 5.0 0.00 0.00 0.00 1020.3
20260506212747 58 257 0.0 5.0 0.00 0.00 0.00 1020.3
20260506212049 57 240 0.0 1.0 0.00 0.00 0.00 1020.4
20260506211857 56 239 0.0 2.0 0.00 0.00 0.00 1020.3
20260506211347 56 236 0.0 1.0 0.00 0.00 0.00 1020.4
20260506210857 56 0 0.0 0.0 0.00 0.00 0.00 1020.4
20260506210647 56 0 0.0 0.0 0.00 0.00 0.00 1020.4
20260506205947 55 0 0.0 0.0 0.00 0.00 0.00 1020.2
20260506205858 56 0 0.0 0.0 0.00 0.00 0.00 1020.3
20260506205247 56 0 0.0 0.0 0.00 0.00 0.00 1020.2
20260506204858 55 0 0.0 0.0 0.00 0.00 0.00 1020.3
20260506204547 55 0 0.0 0.0 0.00 0.00 0.00 1020.3
20260506203847 55 0 0.0 0.0 0.00 0.00 0.00 1020.2
20260506203148 55 225 1.0 4.0 0.00 0.00 0.00 1020.0
20260506202857 55 300 0.0 1.0 0.00 0.00 0.00 1019.8
20260506202447 55 300 0.0 1.0 0.00 0.00 0.00 1019.8
20260506201857 55 211 1.0 7.0 0.00 0.00 0.00 1019.8
20260506201750 55 211 1.0 7.0 0.00 0.00 0.00 1019.8
20260506201047 55 267 1.0 3.0 0.00 0.00 0.00 1019.9
20260506200857 54 266 0.0 2.0 0.00 0.00 0.00 1019.8
20260506200347 54 210 0.0 2.0 0.00 0.00 0.00 1019.5
20260506195858 54 276 1.0 3.0 0.00 0.00 0.00 1019.5
20260506195647 54 276 1.0 3.0 0.00 0.00 0.00 1019.5
20260506194947 54 188 0.0 3.0 0.00 0.00 0.00 1019.4
20260506194857 53 301 1.0 4.0 0.00 0.00 0.00 1019.3
20260506194247 53 194 0.0 5.0 0.00 0.00 0.00 1019.4
20260506193857 53 217 0.0 3.0 0.00 0.00 0.00 1019.3
20260506193547 53 217 0.0 3.0 0.00 0.00 0.00 1019.3
20260506192847 53 277 1.0 4.0 0.00 0.00 0.00 1019.4
20260506192259 50 305 0.0 5.0 0.00 0.00 0.00 1018.8
20260506192148 52 180 0.0 3.0 0.00 0.00 0.00 1019.4
20260506191859 52 198 1.0 6.0 0.00 0.00 0.00 1019.3
20260506191447 52 198 1.0 6.0 0.00 0.00 0.00 1019.3
20260506190857 52 277 2.0 7.0 0.00 0.00 0.00 1019.2
20260506190747 52 277 2.0 7.0 0.00 0.00 0.00 1019.2
20260506190050 52 284 0.0 1.0 0.00 0.00 0.00 1018.9
20260506185858 51 343 0.0 2.0 0.00 0.00 0.00 1019.1
20260506185347 51 169 0.0 4.0 0.00 0.00 0.00 1019.2
20260506184858 51 269 1.0 8.0 0.00 0.00 0.00 1019.0
20260506184647 51 269 1.0 8.0 0.00 0.00 0.00 1019.0
20260506183948 51 172 0.0 3.0 0.00 0.00 0.00 1018.9
20260506183858 51 0 0.0 0.0 0.00 0.00 0.00 1019.0
20260506183247 51 0 0.0 0.0 0.00 0.00 0.00 1018.9
20260506182857 51 314 1.0 4.0 0.00 0.00 0.00 1019.0
20260506182547 51 314 1.0 4.0 0.00 0.00 0.00 1019.0
20260506182045 50 226 0.0 3.0 0.00 0.00 0.00 1018.8
20260506181848 50 226 0.0 3.0 0.00 0.00 0.00 1018.8
20260506181147 51 277 1.0 5.0 0.00 0.00 0.00 1018.6
20260506180857 50 224 0.0 2.0 0.00 0.00 0.00 1018.7
20260506180447 50 224 0.0 2.0 0.00 0.00 0.00 1018.7
20260506175857 50 305 0.0 5.0 0.00 0.00 0.00 1018.8
20260506175748 50 305 0.0 5.0 0.00 0.00 0.00 1018.8
20260506175047 50 186 1.0 4.0 0.00 0.00 0.00 1018.6
20260506174900 50 208 0.0 4.0 0.00 0.00 0.00 1018.6
20260506174347 50 277 0.0 6.0 0.00 0.00 0.00 1018.6
20260506173857 50 0 0.0 0.0 0.00 0.00 0.00 1018.5
20260506173647 50 0 0.0 0.0 0.00 0.00 0.00 1018.5
20260506172948 50 287 1.0 4.0 0.00 0.00 0.00 1018.4
20260506172858 50 0 0.0 0.0 0.00 0.00 0.00 1018.3
20260506172247 50 229 1.0 4.0 0.00 0.00 0.00 1018.4
20260506171858 50 285 1.0 6.0 0.00 0.00 0.00 1018.3
20260506171547 50 285 1.0 6.0 0.00 0.00 0.00 1018.3
20260506170847 50 301 1.0 5.0 0.00 0.00 0.00 1018.6
20260506170147 50 243 0.0 3.0 0.00 0.00 0.00 1018.4
20260506165857 50 295 1.0 6.0 0.00 0.00 0.00 1018.6
20260506165447 50 295 1.0 6.0 0.00 0.00 0.00 1018.6
20260506164857 50 267 1.0 6.0 0.00 0.00 0.00 1018.5
20260506164749 50 267 1.0 6.0 0.00 0.00 0.00 1018.5
20260506164047 50 255 3.0 9.0 0.00 0.00 0.00 1018.5
20260506163857 50 270 1.0 5.0 0.00 0.00 0.00 1018.5
20260506163347 50 229 1.0 7.0 0.00 0.00 0.00 1018.5
20260506162857 50 231 1.0 3.0 0.00 0.00 0.00 1018.5
20260506162647 50 231 1.0 3.0 0.00 0.00 0.00 1018.5
20260506161947 50 278 1.0 6.0 0.00 0.00 0.00 1018.3
20260506161858 50 191 0.0 4.0 0.00 0.00 0.00 1018.4
20260506161247 50 269 1.0 5.0 0.00 0.00 0.00 1018.3
20260506160857 50 264 1.0 5.0 0.00 0.00 0.00 1018.2
20260506160547 50 264 1.0 5.0 0.00 0.00 0.00 1018.2
20260506155849 50 264 3.0 7.0 0.00 0.00 0.00 1018.1
20260506155147 50 267 2.0 5.0 0.00 0.00 0.00 1017.8
20260506154857 50 205 2.0 7.0 0.00 0.00 0.00 1017.9
20260506154447 50 205 2.0 7.0 0.00 0.00 0.00 1017.9
20260506153857 50 253 1.0 8.0 0.00 0.00 0.00 1017.9
20260506153747 50 253 1.0 8.0 0.00 0.00 0.00 1017.9
20260506153047 50 257 2.0 6.0 0.00 0.00 0.00 1018.0
20260506152857 50 267 1.0 8.0 0.00 0.00 0.00 1017.9
20260506152347 50 302 1.0 6.0 0.00 0.00 0.00 1018.1
20260506151857 50 266 1.0 7.0 0.00 0.00 0.00 1018.0
20260506151646 50 266 1.0 7.0 0.00 0.00 0.00 1018.0
20260506150946 50 276 0.0 3.0 0.00 0.00 0.00 1018.2
20260506150857 50 273 1.0 5.0 0.00 0.00 0.00 1018.0
20260506150247 50 283 1.0 5.0 0.00 0.00 0.00 1018.3
20260506145857 50 274 0.0 1.0 0.00 0.00 0.00 1018.1
20260506145547 50 274 0.0 1.0 0.00 0.00 0.00 1018.1
20260506144846 50 269 2.0 7.0 0.00 0.00 0.00 1018.0
20260506144146 50 277 2.0 8.0 0.00 0.00 0.00 1018.2
20260506143857 50 302 1.0 5.0 0.00 0.00 0.00 1017.9
20260506143447 50 302 1.0 5.0 0.00 0.00 0.00 1017.9
20260506142857 50 214 1.0 4.0 0.00 0.00 0.00 1017.7
20260506142748 50 214 1.0 4.0 0.00 0.00 0.00 1017.7
20260506142046 50 248 0.0 4.0 0.00 0.00 0.00 1017.6
20260506141858 50 260 0.0 5.0 0.00 0.00 0.00 1017.8
20260506141551 50 278 0.0 5.0 0.00 0.00 0.00 1018.1
20260506141346 50 278 0.0 5.0 0.00 0.00 0.00 1018.1
20260506140857 50 198 0.0 3.0 0.00 0.00 0.00 1017.8
20260506140647 50 198 0.0 3.0 0.00 0.00 0.00 1017.8
20260506135948 50 270 1.0 5.0 0.00 0.00 0.00 1018.0
20260506135857 50 198 1.0 4.0 0.00 0.00 0.00 1017.8
20260506135247 50 0 0.0 0.0 0.00 0.00 0.00 1017.8
20260506134857 50 0 0.0 0.0 0.00 0.00 0.00 1017.6
20260506134546 50 0 0.0 0.0 0.00 0.00 0.00 1017.6
20260506133846 50 309 1.0 4.0 0.00 0.00 0.00 1017.8
20260506133146 50 295 0.0 4.0 0.00 0.00 0.00 1017.8
20260506132857 50 262 0.0 5.0 0.00 0.00 0.00 1017.8
20260506132446 50 262 0.0 5.0 0.00 0.00 0.00 1017.8
20260506131857 50 208 0.0 2.0 0.00 0.00 0.00 1017.8
20260506131747 50 208 0.0 2.0 0.00 0.00 0.00 1017.8
20260506131047 50 269 0.0 3.0 0.00 0.00 0.00 1017.7
20260506130857 50 257 0.0 4.0 0.00 0.00 0.00 1017.7
20260506130346 50 0 0.0 0.0 0.00 0.00 0.00 1017.6
20260506125857 50 271 0.0 6.0 0.00 0.00 0.00 1017.6
20260506125652 50 271 0.0 6.0 0.00 0.00 0.00 1017.6
20260506124947 50 197 0.0 3.0 0.00 0.00 0.00 1017.5
20260506124856 50 277 2.0 5.0 0.00 0.00 0.00 1017.5
20260506124246 50 260 1.0 5.0 0.00 0.00 0.00 1017.6
20260506123857 50 271 1.0 5.0 0.00 0.00 0.00 1017.3
20260506123546 50 271 1.0 5.0 0.00 0.00 0.00 1017.3
20260506122923 50 291 1.0 6.0 0.00 0.00 0.00 1017.2
20260506122847 50 291 1.0 6.0 0.00 0.00 0.00 1017.2
20260506122146 50 281 1.0 8.0 0.00 0.00 0.00 1017.1
20260506121856 50 270 0.0 2.0 0.00 0.00 0.00 1017.2
20260506121519 50 270 0.0 2.0 0.00 0.00 0.00 1017.2
20260506121446 50 270 0.0 2.0 0.00 0.00 0.00 1017.2
20260506120857 50 250 1.0 9.0 0.00 0.00 0.00 1017.4
20260506120748 50 250 1.0 9.0 0.00 0.00 0.00 1017.4
20260506120046 50 301 0.0 3.0 0.00 0.00 0.00 1017.2
20260506115857 50 274 0.0 3.0 0.00 0.00 0.00 1017.3
20260506115347 50 278 1.0 6.0 0.00 0.00 0.00 1017.4
20260506114856 50 271 0.0 2.0 0.00 0.00 0.00 1017.2
20260506114646 50 271 0.0 2.0 0.00 0.00 0.00 1017.2
20260506113946 50 281 1.0 5.0 0.00 0.00 0.00 1017.2
20260506113856 50 276 2.0 7.0 0.00 0.00 0.00 1017.3
20260506113246 50 285 1.0 6.0 0.00 0.00 0.00 1017.2
20260506112857 50 278 1.0 5.0 0.00 0.00 0.00 1017.3
20260506112619 50 278 1.0 5.0 0.00 0.00 0.00 1017.3
20260506112546 50 278 1.0 5.0 0.00 0.00 0.00 1017.3
20260506111846 50 270 1.0 5.0 0.00 0.00 0.00 1017.1
20260506111545 50 288 0.0 1.0 0.00 0.00 0.00 1017.1
20260506111146 50 288 0.0 1.0 0.00 0.00 0.00 1017.1
20260506110857 50 298 0.0 1.0 0.00 0.00 0.00 1017.1
20260506110451 50 298 0.0 1.0 0.00 0.00 0.00 1017.1
20260506105856 50 274 0.0 4.0 0.00 0.00 0.00 1017.1
20260506105749 50 274 0.0 4.0 0.00 0.00 0.00 1017.1
20260506105046 50 295 2.0 6.0 0.00 0.00 0.00 1017.2
20260506104856 50 255 1.0 5.0 0.00 0.00 0.00 1017.2
20260506103856 50 302 1.0 4.0 0.00 0.00 0.00 1017.0
20260506103646 50 302 1.0 4.0 0.00 0.00 0.00 1017.0
20260506102946 50 259 0.0 4.0 0.00 0.00 0.00 1017.2
20260506102857 50 0 0.0 0.0 0.00 0.00 0.00 1016.9
20260506102246 50 284 1.0 7.0 0.00 0.00 0.00 1017.2
20260506101546 50 293 0.0 3.0 0.00 0.00 0.00 1017.2
20260506100846 50 305 1.0 4.0 0.00 0.00 0.00 1017.1
20260506100149 50 242 0.0 3.0 0.00 0.00 0.00 1017.1
20260506095856 50 305 1.0 6.0 0.00 0.00 0.00 1017.1
20260506095446 50 305 1.0 6.0 0.00 0.00 0.00 1017.1
20260506094858 50 259 0.0 4.0 0.00 0.00 0.00 1017.0
20260506094046 50 0 0.0 0.0 0.00 0.00 0.00 1016.9
20260506093856 50 195 0.0 1.0 0.00 0.00 0.00 1016.9
20260506093346 50 276 0.0 3.0 0.00 0.00 0.00 1016.9
20260506092856 50 295 1.0 5.0 0.00 0.00 0.00 1016.9
20260506092646 50 295 1.0 5.0 0.00 0.00 0.00 1016.9
20260506091946 50 0 0.0 0.0 0.00 0.00 0.00 1016.8
20260506091856 50 300 0.0 3.0 0.00 0.00 0.00 1016.8
20260506091246 50 298 1.0 4.0 0.00 0.00 0.00 1016.8
20260506090856 50 314 0.0 2.0 0.00 0.00 0.00 1016.9
20260506090547 50 314 0.0 2.0 0.00 0.00 0.00 1016.9
20260506085846 49 307 0.0 2.0 0.00 0.00 0.00 1016.8
20260506085147 49 273 0.0 2.0 0.00 0.00 0.00 1016.8
20260506084856 50 274 0.0 4.0 0.00 0.00 0.00 1016.8
20260506084448 50 274 0.0 4.0 0.00 0.00 0.00 1016.8
20260506083857 50 287 1.0 4.0 0.00 0.00 0.00 1016.8
20260506083749 50 287 1.0 4.0 0.00 0.00 0.00 1016.8
20260506083046 50 238 0.0 2.0 0.00 0.00 0.00 1016.7
20260506082856 50 283 0.0 3.0 0.00 0.00 0.00 1016.6
20260506082346 50 273 0.0 2.0 0.00 0.00 0.00 1016.6
20260506081856 50 287 0.0 3.0 0.00 0.00 0.00 1016.5
20260506081646 50 287 0.0 3.0 0.00 0.00 0.00 1016.5
20260506080946 50 277 0.0 2.0 0.00 0.00 0.00 1016.6
20260506080856 50 277 0.0 4.0 0.00 0.00 0.00 1016.6
20260506080246 50 257 0.0 4.0 0.00 0.00 0.00 1016.4
20260506073446 51 304 0.0 3.0 0.00 0.00 0.00 1016.5
20260506072857 51 110 0.0 1.0 0.00 0.00 0.00 1016.5
20260506072746 51 110 0.0 1.0 0.00 0.00 0.00 1016.5
20260506072046 51 0 0.0 0.0 0.00 0.00 0.00 1016.6
20260506071856 51 186 0.0 2.0 0.00 0.00 0.00 1016.5
20260506071346 51 0 0.0 0.0 0.00 0.00 0.00 1016.5
20260506070856 51 0 0.0 0.0 0.00 0.00 0.00 1016.6
20260506070646 51 0 0.0 0.0 0.00 0.00 0.00 1016.6
20260506062446 53 203 0.0 2.0 0.00 0.00 0.00 1016.4
20260506061856 53 267 0.0 3.0 0.00 0.00 0.00 1016.3
20260506061748 53 267 0.0 3.0 0.00 0.00 0.00 1016.3
20260506061046 53 250 0.0 4.0 0.00 0.00 0.00 1016.3
20260506060857 53 274 2.0 8.0 0.00 0.00 0.00 1016.2
20260506060346 53 270 2.0 7.0 0.00 0.00 0.00 1016.3
20260506050858 55 276 3.0 8.0 0.00 0.00 0.00 1016.0
20260506050747 55 276 3.0 8.0 0.00 0.00 0.00 1016.0
20260506044856 56 271 1.0 6.0 0.00 0.00 0.00 1016.1
20260506044645 56 271 1.0 6.0 0.00 0.00 0.00 1016.1
20260506043945 56 243 1.0 3.0 0.00 0.00 0.00 1015.9
20260506043856 57 281 0.0 2.0 0.00 0.00 0.00 1015.8
20260506043246 57 0 0.0 0.0 0.00 0.00 0.00 1015.9
20260506042856 57 0 0.0 0.0 0.00 0.00 0.00 1015.9
20260506042545 57 0 0.0 0.0 0.00 0.00 0.00 1015.9
20260506041845 57 0 0.0 0.0 0.00 0.00 0.00 1016.0
20260506041217 57 0 0.0 0.0 0.00 0.00 0.00 1016.0
20260506041146 57 0 0.0 0.0 0.00 0.00 0.00 1016.0
20260506040856 57 0 0.0 0.0 0.00 0.00 0.00 1015.9
20260506040447 57 0 0.0 0.0 0.00 0.00 0.00 1015.9
20260506035856 58 0 0.0 0.0 0.00 0.00 0.00 1015.8
20260506035748 58 0 0.0 0.0 0.00 0.00 0.00 1015.8
20260506035046 58 0 0.0 0.0 0.00 0.00 0.00 1015.9
20260506034856 58 0 0.0 0.0 0.00 0.00 0.00 1015.8
20260506034345 59 0 0.0 0.0 0.00 0.00 0.00 1015.8
20260506033855 59 0 0.0 0.0 0.00 0.00 0.00 1015.9
20260506033645 59 0 0.0 0.0 0.00 0.00 0.00 1015.9
20260506032946 59 0 0.0 0.0 0.00 0.00 0.00 1015.7
20260506032856 59 0 0.0 0.0 0.00 0.00 0.00 1015.7
20260506032247 60 0 0.0 0.0 0.00 0.00 0.00 1015.8
20260506031855 60 0 0.0 0.0 0.00 0.00 0.00 1015.6
20260506031546 60 0 0.0 0.0 0.00 0.00 0.00 1015.6
20260506030845 60 0 0.0 0.0 0.00 0.00 0.00 1015.7
20260506030145 61 0 0.0 0.0 0.00 0.00 0.00 1015.7
20260506025855 61 0 0.0 0.0 0.00 0.00 0.00 1015.7
20260506025446 61 0 0.0 0.0 0.00 0.00 0.00 1015.7
20260506024855 62 0 0.0 0.0 0.00 0.00 0.00 1015.6
20260506024748 62 0 0.0 0.0 0.00 0.00 0.00 1015.6
20260506024045 62 0 0.0 0.0 0.00 0.00 0.00 1015.6
20260506023856 63 0 0.0 0.0 0.00 0.00 0.00 1015.6
20260506023346 63 0 0.0 0.0 0.00 0.00 0.00 1015.6
20260506022856 63 0 0.0 0.0 0.00 0.00 0.00 1015.5
20260506022645 63 0 0.0 0.0 0.00 0.00 0.00 1015.5
20260506021945 63 0 0.0 0.0 0.00 0.00 0.00 1015.6
20260506021856 63 0 0.0 0.0 0.00 0.00 0.00 1015.5
20260506021245 63 0 0.0 0.0 0.00 0.00 0.00 1015.6
20260506020856 63 0 0.0 0.0 0.00 0.00 0.00 1015.6
20260506020546 63 0 0.0 0.0 0.00 0.00 0.00 1015.6
20260506015845 64 0 0.0 0.0 0.00 0.00 0.00 1015.5
20260506015145 65 0 0.0 0.0 0.00 0.00 0.00 1015.5
20260506014856 65 38 0.0 2.0 0.00 0.00 0.00 1015.5
20260506014445 65 38 0.0 2.0 0.00 0.00 0.00 1015.5
20260506013856 65 0 0.0 0.0 0.00 0.00 0.00 1015.6
20260506013820 65 0 0.0 0.0 0.00 0.00 0.00 1015.6
20260506013747 65 0 0.0 0.0 0.00 0.00 0.00 1015.6
20260506013046 65 198 0.0 4.0 0.00 0.00 0.00 1015.5
20260506012856 66 257 0.0 2.0 0.00 0.00 0.00 1015.5
20260506012345 66 225 0.0 3.0 0.00 0.00 0.00 1015.5
20260506011855 66 290 1.0 3.0 0.00 0.00 0.00 1015.4
20260506011645 66 290 1.0 3.0 0.00 0.00 0.00 1015.4
20260506010945 66 0 0.0 0.0 0.00 0.00 0.00 1015.5
20260506010855 66 284 0.0 3.0 0.00 0.00 0.00 1015.5
20260506010327 67 281 1.0 3.0 0.00 0.00 0.00 1015.6
20260506010245 67 281 1.0 3.0 0.00 0.00 0.00 1015.6
20260506005855 67 205 1.0 3.0 0.00 0.00 0.00 1015.5
20260506005545 67 205 1.0 3.0 0.00 0.00 0.00 1015.5
20260506004845 67 0 0.0 0.0 0.00 0.00 0.00 1015.7
20260506004145 68 228 0.0 3.0 0.00 0.00 0.00 1015.6